Regional Weather Roundup
Issued by NWS

Home | Current Version | Previous Version | Graphics & Text | Print | Product List | Glossary On
Versions: 1 2 3 4 5 6 7 8 9 10 11 12 13 14 15 16 17 18 19 20 21 22 23 24 25 26 27 28 29 30 31 32 33 34 35 36 37 38
000
ASUS45 KBOU 221407
RWRCO

WEATHER ROUNDUP FOR COLORADO
NATIONAL WEATHER SERVICE DENVER/BOULDER CO
800 AM MDT WED OCT 22 2014

NOTE: "FAIR" INDICATES FEW OR NO CLOUDS BELOW 12000 FEET WITH NO
SIGNIFICANT WEATHER AND/OR OBSTRUCTIONS TO VISIBILITY.

COZ001>005-013-030-031-221500-
...NORTHWEST COLORADO...

CITY           SKY/WX    TMP DP  RH WIND       PRES   REMARKS
CRAIG          CLOUDY    40  37  89 CALM      30.17R
HAYDEN         MOCLDY    39  36  87 SE6       30.17R
MEEKER         PTCLDY    41  38  89 MISG      30.17R
MOUNT WERNER   NOT AVBL
STEAMBOAT SPGS CLOUDY    39  37  94 CALM      30.18R
WALDEN         MOCLDY    36  32  87 S9        30.18S
$$

COZ006>008-011-221500-
...WEST CENTRAL VALLEYS...

CITY           SKY/WX    TMP DP  RH WIND       PRES   REMARKS
GRAND JUNCTION CLEAR     44  41  89 VRB3      30.12R
MONTROSE       PTCLDY    43  39  86 SE5       30.17R
EAGLE          PTCLDY    39  39 100 E6        30.23R
RIFLE          CLEAR     40  39  97 CALM      30.16R
DELTA          PTCLDY    48  45  88 NE7       30.15R
NUCLA          CLEAR     45  37  76 E6        30.19R
$$

COZ017>023-064>068-221500-
...SOUTHWEST COLORADO...

CITY           SKY/WX    TMP DP  RH WIND       PRES   REMARKS
DURANGO        PTCLDY    39  37  92 N7        30.21R
CORTEZ         PTCLDY    39  36  89 E6        30.17R
PAGOSA SPRINGS PTCLDY    38  38 100 CALM      30.25R FOG
TELLURIDE      MOCLDY    39  35  83 CALM      30.30R
WOLF CREEK PAS FOG       32  32 100 SW12        N/A  VSB<1/4 WCI  23
$$

COZ009-010-012-014-032>034-037-058>063-221500-
...CENTRAL COLORADO...

CITY           SKY/WX    TMP DP  RH WIND       PRES   REMARKS
ASPEN          PTCLDY    35  33  92 SW3       30.22R
BUENA VISTA    PTCLDY    37  34  89 W3        30.23R
COPPER MTN     MOCLDY    34  30  86 SW9G21    30.35R WCI  26
BERTHOUD PASS  MOCLDY    27  23  86 W23       30.33R WCI  12
COTTONWOOD PAS PTCLDY    41  34  75 CALM      30.29R
GUNNISON       CLOUDY    39  36  87 SE5       30.28R
KREMMLING      LGT RAIN  39  34  81 CALM        N/A
LEADVILLE      FOG       30  30 100 CALM      30.28R VSB 1/4
MONARCH PASS   SNOW      30  30 100 MISG      30.45R VSB<1/4
SALIDA         MOCLDY    44  38  81 NW5       30.29R
SUNLIGHT       CLEAR     34  34 100 CALM      30.31S FOG
WILKERSON PASS NOT AVBL
$$

COZ069>075-221500-
...SAN LUIS VALLEY/SANGRE DE CRISTO MOUNTAINS...

CITY           SKY/WX    TMP DP  RH WIND       PRES   REMARKS
ALAMOSA        MOCLDY    34  32  92 W3        30.23R
LA VETA PASS   PTCLDY    34  32  93 S10G16    30.30S WCI  26
SAGUACHE       PTCLDY    34  32  93 NW7       30.26R WCI  28
$$

COZ035-036-038>040-221500-
...NORTHERN COLORADO FRONT RANGE...

CITY           SKY/WX    TMP DP  RH WIND       PRES   REMARKS
DENVER INTL AP MOCLDY    47  42  83 S9        30.08R
DMNS CITY PARK   N/A     50  41  72 SW8       30.08R
AURORA         MOCLDY    48  42  82 S10       30.10R
FRONT RANGE AP MOCLDY    46  41  81 S12       30.09R
ERIE MUNI ARPT MOCLDY    53  41  65 CALM      30.06R
BOULDER MUN AP MOCLDY    55  34  44 SW14      30.05S
CENTENNIAL     MOCLDY    48  41  76 S7        30.10R
BROOMFIELD     MOCLDY    54  39  58 CALM      30.08R
FORT COLLINS   CLOUDY    48  39  71 NE6       30.07R
LONGMONT       CLOUDY    47  44  86 SW5       30.07R
$$

COZ041-046-047-076>085-087-088-221500-
...PIKES PEAK/PALMER DIVIDE AND SOUTHERN FOOTHILLS...

CITY           SKY/WX    TMP DP  RH WIND       PRES   REMARKS
COLO. SPRINGS  PTCLDY    50  39  66 NW3       30.13R
A. F. ACADEMY  PTCLDY    45  38  78 NE6       30.14R
ELLICOTT       CLEAR     45  40  82 N3        30.11R
FALCON         CLEAR     48  38  68 N7        30.15R
FORT CARSON    CLEAR     48  39  70 N7        30.11R
LIMON          PTCLDY    43  40  89 CALM      30.09R
MONUMENT HILL  PTCLDY    39  36  87 SW6       30.15R
TRINIDAD       PTCLDY    48  41  76 SW10      30.12R
$$

COZ042>045-048>051-090-091-221500-
...NORTHEAST COLORADO...

CITY           SKY/WX    TMP DP  RH WIND       PRES   REMARKS
GREELEY ARPT   CLOUDY    45  37  76 CALM      30.07R
AKRON          PTCLDY    49  44  83 NW9       30.04R
BURLINGTON     CLOUDY    52  44  74 NW6       30.02R
WRAY           CLOUDY    57  47  71 NE6       30.00S
STERLING       PTCLDY    54  46  76 N3        30.03R
HOLYOKE        CLOUDY    55  48  76 CALM      30.01R
FORT MORGAN    PTCLDY    52  39  62 N8        30.05R
$$

COZ086-089-092>099-221500-
...SOUTHEAST COLORADO...

CITY           SKY/WX    TMP DP  RH WIND       PRES   REMARKS
PUEBLO         CLEAR     47  40  76 CALM      30.08R
LA JUNTA       MOCLDY    51  45  79 NW6       30.05R
LAMAR          CLOUDY    52  48  86 NW6       30.00R
SPRINGFIELD      N/A     56  53  90 SW9       30.03R
$$



USA.gov is the U.S. government's official web portal to all federal, state and local government web resources and services.